Regional Weather Roundup
Issued by NWS Kansas City/Pleasant Hill, MO

Home | Current Version | Previous Version | Text Only | Print | Product List | Glossary On
Versions: 1 2 3 4 5 6 7 8 9 10 11 12 13 14 15 16 17 18 19 20 21 22 23 24 25 26 27
000
ASUS43 KEAX 090710
RWREAX

WEATHER ROUNDUP FOR EASTERN KANSAS AND NORTHWEST MISSOURI
NATIONAL WEATHER SERVICE KANSAS CITY/PLEASANT HILL MO
100 AM CST FRI DEC 09 2016

KSZ040-057-103>105-MOZ028-029-037-043-090800-
...KANSAS CITY METROPOLITAN AREA...

CITY           SKY/WX    TMP DP  RH WIND       PRES   REMARKS
K.C. INTL      CLEAR     15   7  70 NW5       30.64S WCI   8
K.C. DOWNTOWN  CLEAR     18  10  71 NW5       30.66S WCI  11
LEES SUMMIT    CLEAR     17   9  70 NW6       30.64S WCI   9
OLATHE - IXD   CLEAR     14   9  80 NW6       30.65S WCI   5
OLATHE - OJC   CLEAR     16   8  71 NW5       30.64S WCI   9
LAWRENCE       CLEAR      9   7  92 NW3       30.67S

$$

MOZ001>008-011>017-020>025-030>033-038>040-044>046-053-054-090800-
...NORTHERN AND CENTRAL MISSOURI...

CITY           SKY/WX    TMP DP  RH WIND       PRES   REMARKS
ST. JOSEPH     CLEAR     15   9  76 NE3       30.66S
MOSBY          SUNNY     14  10  85 CALM      30.65F
WARRENSBURG    PTCLDY    18  10  73 W3        30.65S
WHITEMAN AFB   PTCLDY    16  11  80 W5        30.63S WCI   9
CLINTON        CLEAR     16  10  79 CALM      30.64S
SEDALIA        CLEAR     16  10  77 W6        30.63F WCI   7
WARSAW         NOT AVBL
CHILLICOTHE      N/A     17   8  67 NW3       30.64S
KIRKSVILLE     CLEAR     15   9  76 NW7       30.58F WCI   5

$$

MOZ041-047>049-056>058-063>065-088>090-097-090800-
...EASTERN AND SOUTHERN MISSOURI...

CITY           SKY/WX    TMP DP  RH WIND       PRES   REMARKS
ST. LOUIS INTL CLEAR     21  12  68 W9        30.59S WCI  11
SPIRIT OF STL  CLEAR     20  13  74 W7        30.60F WCI  11
COLUMBIA       CLEAR     18  10  71 NW7       30.60F WCI   9
JEFFERSON CITY CLEAR     17  10  74 NW3       30.63F
ROLLA          CLEAR     16  11  80 NW8       30.56F WCI   5
OSAGE BEACH    CLEAR     19  11  70 NW5       30.62F WCI  12
SPRINGFIELD    CLEAR     15   9  76 NW5       30.60F WCI   8
BRANSON        CLEAR     18  12  79 NW5       30.61F WCI  11
JOPLIN         CLEAR     15  11  83 CALM      30.66F
WEST PLAINS    CLEAR     19  12  74 N7        30.59S WCI  10

$$

IAZ060-094-KSZ022-034>040-054-083-096-NEZ052-066-093-090800-
...KANSAS...SOUTHEAST NEBRASKA AND IOWA...

CITY           SKY/WX    TMP DP  RH WIND       PRES   REMARKS
TOPEKA         CLEAR     12   6  77 CALM      30.67S
MANHATTAN      CLEAR     10   5  80 SW3       30.66F
EMPORIA        CLEAR     13   9  84 W3        30.64F
CHANUTE        CLEAR     15  10  80 NW3       30.65F
WICHITA        PTCLDY    13   9  84 CALM      30.65S
OMAHA          CLEAR     10   3  73 N6        30.65S WCI   0
LINCOLN        CLEAR      8   3  80 CALM      30.66F
FALLS CITY     CLEAR     11   6  81 NW5       30.65S WCI   3
LAMONI         CLEAR     13   7  77 NW9       30.59S WCI   1
DES MOINES     PTCLDY    15   8  73 NW12      30.59S WCI   2

$$





USA.gov is the U.S. government's official web portal to all federal, state and local government web resources and services.